User: anonymous   Login
Location: Columbia
(38.9520°N, 92.3340°W)
Time: 10:05:26
(UTC-05:00)
Language:

Iridium 15 - Orbit

View from above orbital plane
View from above orbital plane
View from above satellite
View from above satellite

Ground track
Ground track

The orbit data is extracted from the following two-line orbital elements,

1 24869U 97034A   14296.41301750  .00000138  00000-0  42040-4 0  1229
2 24869 086.3970 066.3470 0002145 112.7451 304.6494 14.34213524905208
Epoch (UTC): 23 October 2014 09:54:44
Eccentricity: 0.0002145
inclination: 86.3970°
perigee height: 776 km
apogee height: 779 km
right ascension of ascending node: 66.3470°
argument of perigee: 112.7451°
revolutions per day: 14.34213524
mean anomaly at epoch: 304.6494°
orbit number at epoch: 90520

The dashed part of the orbit path shows where the satellite is in the earth's shadow,  

DLR